Location: Lafig�re
(44.4503°N, 4.0357°E)
Time: 16:14:04
(UTC+00:00)

Cosmos 1092 Rocket - Pass Details

Date: 24 September 2020
Orbit: 954 x 995 km, 82.9° (Epoch: 25 October)

Event Time Altitude Azimuth Distance (km) Brightness Sun altitude
Rises 18:49:48 0° 356° (N) 3,648 7.2 -13.7°
Reaches altitude 10° 18:52:24 10° 1° (N) 2,702 6.5 -14.2°
Maximum altitude 18:58:24 51° 77° (ENE) 1,203 4.1 -15.2°
Enters shadow 19:04:18 11° 152° (SSE) 2,669 5.9 -16.3°
